FW2664 Weather Reports


Display with metric or nautical units.
time (UTC)temp
F
wind
direction
speed
MPH
gust
MPH
rain 1hr
in
rain 24hr
in
rain mn
in
humidity
%
barometer
mb
20260906165406 95 326 1.0 2.0 0.00 0.00 0.00 55 1011.5
20260906164901 94 119 2.0 4.0 0.00 0.00 0.00 55 1011.5
20260906164400 93 350 2.0 5.0 0.00 0.00 0.00 57 1011.6
20260906163856 93 264 4.0 4.0 0.00 0.00 0.00 56 1011.6
20260906163353 93 266 4.0 5.0 0.00 0.00 0.00 56 1011.6
20260906162851 92 333 4.0 4.0 0.00 0.00 0.00 57 1011.7
20260906162349 93 279 3.0 5.0 0.00 0.00 0.00 57 1011.7
20260906161844 94 318 3.0 4.0 0.00 0.00 0.00 55 1011.9
20260906161344 93 111 2.0 4.0 0.00 0.00 0.00 57 1012.0
20260906160843 92 239 3.0 4.0 0.00 0.00 0.00 57 1012.0
20260906160337 91 8 2.0 4.0 0.00 0.00 0.00 58 1012.0
20260906155835 91 282 2.0 5.0 0.00 0.00 0.00 59 1012.1
20260906155329 91 348 4.0 6.0 0.00 0.00 0.00 58 1012.0
20260906154826 91 314 0.0 4.0 0.00 0.00 0.00 59 1011.9
20260906154320 91 291 3.0 6.0 0.00 0.00 0.00 60 1011.8
20260906153819 91 277 2.0 3.0 0.00 0.00 0.00 60 1011.8
20260906153318 90 281 4.0 5.0 0.00 0.00 0.00 60 1011.9
20260906152813 90 241 2.0 3.0 0.00 0.00 0.00 61 1011.7
20260906152308 90 328 5.0 5.0 0.00 0.00 0.00 60 1011.7
20260906151808 90 253 3.0 5.0 0.00 0.00 0.00 60 1011.8
20260906151303 89 298 1.0 2.0 0.00 0.00 0.00 63 1011.9
20260906150759 89 269 4.0 9.0 0.00 0.00 0.00 62 1012.0
20260906150254 88 244 1.0 6.0 0.00 0.00 0.00 65 1012.0
20260906145753 88 345 2.0 3.0 0.00 0.00 0.00 63 1012.0
20260906145251 87 358 0.0 3.0 0.00 0.00 0.00 64 1011.8
20260906144747 87 271 1.0 3.0 0.00 0.00 0.00 65 1012.1
20260906144242 87 280 3.0 3.0 0.00 0.00 0.00 66 1012.1
20260906143741 87 269 3.0 3.0 0.00 0.00 0.00 67 1011.9
20260906143239 86 218 2.0 4.0 0.00 0.00 0.00 67 1012.1
20260906142738 86 305 2.0 4.0 0.00 0.00 0.00 67 1012.0
20260906142233 86 269 4.0 4.0 0.00 0.00 0.00 67 1012.0
20260906141732 85 330 2.0 2.0 0.00 0.00 0.00 68 1012.1
20260906141227 85 161 2.0 2.0 0.00 0.00 0.00 69 1012.3
20260906140727 84 223 2.0 3.0 0.00 0.00 0.00 69 1012.2
20260906140221 85 306 1.0 3.0 0.00 0.00 0.00 69 1012.2
20260906135718 83 357 0.0 3.0 0.00 0.00 0.00 71 1012.2
20260906135214 83 336 3.0 3.0 0.00 0.00 0.00 70 1012.3
20260906134710 83 108 2.0 3.0 0.00 0.00 0.00 71 1012.5
20260906134205 82 39 1.0 4.0 0.00 0.00 0.00 71 1012.6
20260906133700 82 319 2.0 3.0 0.00 0.00 0.00 71 1012.5
20260906133155 82 346 2.0 4.0 0.00 0.00 0.00 73 1012.5
20260906132651 81 330 2.0 3.0 0.00 0.00 0.00 73 1012.5
20260906132147 81 74 3.0 4.0 0.00 0.00 0.00 75 1012.6
20260906131642 81 96 3.0 3.0 0.00 0.00 0.00 75 1012.5
20260906131137 82 25 2.0 3.0 0.00 0.00 0.00 74 1012.5
20260906130632 82 75 1.0 3.0 0.00 0.00 0.00 74 1012.4
20260906130127 82 34 1.0 2.0 0.00 0.00 0.00 74 1012.6
20260906125625 81 93 2.0 4.0 0.00 0.00 0.00 75 1012.5
20260906125123 80 45 2.0 2.0 0.00 0.00 0.00 77 1012.5
20260906124619 80 84 2.0 4.0 0.00 0.00 0.00 76 1012.6
20260906124114 80 81 2.0 2.0 0.00 0.00 0.00 76 1012.5
20260906123614 80 69 2.0 3.0 0.00 0.00 0.00 78 1012.5
20260906123109 79 91 1.0 3.0 0.00 0.00 0.00 79 1012.5
20260906122608 77 89 0.0 2.0 0.00 0.00 0.00 83 1012.2
20260906122104 76 84 2.0 3.0 0.00 0.00 0.00 85 1012.1
20260906121600 75 77 1.0 3.0 0.00 0.00 0.00 87 1012.1
20260906121056 74 93 0.0 3.0 0.00 0.00 0.00 88 1012.1
20260906120551 73 50 2.0 2.0 0.00 0.00 0.00 90 1012.0
20260906120049 73 40 2.0 3.0 0.00 0.00 0.00 90 1011.9
20260906115548 73 64 1.0 2.0 0.00 0.00 0.00 91 1011.5
20260906115043 72 88 1.0 3.0 0.00 0.00 0.00 91 1011.8
20260906114537 72 87 1.0 2.0 0.00 0.00 0.00 91 1011.6
20260906114033 72 86 2.0 2.0 0.00 0.00 0.00 90 1011.6
20260906113532 72 84 1.0 2.0 0.00 0.00 0.00 90 1011.5
20260906113028 72 57 2.0 2.0 0.00 0.00 0.00 90 1011.6
20260906112522 72 77 2.0 3.0 0.00 0.00 0.00 90 1011.5
20260906112019 73 63 0.0 2.0 0.00 0.00 0.00 89 1011.4
20260906111513 73 55 1.0 2.0 0.00 0.00 0.00 89 1011.4
20260906111008 73 79 2.0 2.0 0.00 0.00 0.00 89 1011.3
20260906110502 73 60 2.0 2.0 0.00 0.00 0.00 89 1011.3
20260906110001 73 47 2.0 3.0 0.00 0.00 0.00 88 1011.2
20260906105458 73 66 2.0 2.0 0.00 0.00 0.00 88 1011.2
20260906104953 73 88 2.0 2.0 0.00 0.00 0.00 88 1011.2
20260906104451 73 339 1.0 2.0 0.00 0.00 0.00 88 1011.3
20260906103951 73 63 0.0 3.0 0.00 0.00 0.00 87 1011.3
20260906103449 73 79 2.0 3.0 0.00 0.00 0.00 87 1011.1
20260906102944 73 76 1.0 2.0 0.00 0.00 0.00 87 1011.1
20260906102439 73 54 2.0 3.0 0.00 0.00 0.00 87 1011.0
20260906101939 73 62 2.0 2.0 0.00 0.00 0.00 86 1011.3
20260906101434 73 92 1.0 3.0 0.00 0.00 0.00 86 1011.3
20260906100929 73 66 1.0 2.0 0.00 0.00 0.00 85 1011.2
20260906100429 74 70 2.0 2.0 0.00 0.00 0.00 85 1011.2
20260906095924 74 67 2.0 3.0 0.00 0.00 0.00 84 1011.0
20260906095420 74 69 2.0 2.0 0.00 0.00 0.00 84 1011.0
20260906094920 74 79 2.0 2.0 0.00 0.00 0.00 84 1011.0
20260906094414 74 66 2.0 3.0 0.00 0.00 0.00 83 1011.0
20260906093910 74 33 1.0 3.0 0.00 0.00 0.00 83 1010.9
20260906093407 75 72 1.0 3.0 0.00 0.00 0.00 82 1010.8
20260906092901 75 87 2.0 3.0 0.00 0.00 0.00 82 1010.9
20260906092400 75 13 0.0 1.0 0.00 0.00 0.00 83 1010.9
20260906091856 75 104 0.0 2.0 0.00 0.00 0.00 82 1011.0
20260906091352 75 35 0.0 2.0 0.00 0.00 0.00 82 1011.0
20260906090848 75 82 2.0 3.0 0.00 0.00 0.00 81 1011.0
20260906090347 75 76 0.0 2.0 0.00 0.00 0.00 81 1010.9
20260906085842 75 48 1.0 2.0 0.00 0.00 0.00 80 1011.0
20260906085341 76 69 3.0 3.0 0.00 0.00 0.00 80 1011.0
20260906084836 76 56 1.0 2.0 0.00 0.00 0.00 80 1011.0
20260906084336 76 103 2.0 4.0 0.00 0.00 0.00 80 1010.9
20260906083830 75 198 0.0 4.0 0.00 0.00 0.00 82 1011.0
20260906083326 75 42 2.0 2.0 0.00 0.00 0.00 83 1010.9
20260906082826 75 103 1.0 2.0 0.00 0.00 0.00 83 1010.9
20260906082321 75 89 0.0 1.0 0.00 0.00 0.00 82 1010.9
20260906081817 75 238 0.0 2.0 0.00 0.00 0.00 82 1011.0
20260906081313 75 117 2.0 3.0 0.00 0.00 0.00 82 1010.7
20260906080809 76 74 0.0 2.0 0.00 0.00 0.00 81 1010.9
20260906080305 76 96 2.0 2.0 0.00 0.00 0.00 81 1010.8
20260906075804 76 91 0.0 3.0 0.00 0.00 0.00 80 1010.8
20260906075306 76 20 1.0 2.0 0.00 0.00 0.00 80 1010.8
20260906074759 76 320 1.0 4.0 0.00 0.00 0.00 80 1010.9
20260906074259 76 101 0.0 4.0 0.00 0.00 0.00 79 1010.9
20260906073758 76 18 0.0 3.0 0.00 0.00 0.00 79 1010.9
20260906073253 76 128 2.0 5.0 0.00 0.00 0.00 78 1011.0
20260906072749 76 168 1.0 3.0 0.00 0.00 0.00 77 1011.0
20260906072244 77 75 1.0 2.0 0.00 0.00 0.00 77 1011.0
20260906071740 77 106 0.0 2.0 0.00 0.00 0.00 77 1011.0
20260906071240 77 128 1.0 3.0 0.00 0.00 0.00 76 1011.0
20260906070737 77 79 2.0 2.0 0.00 0.00 0.00 76 1011.0
20260906070232 77 94 0.0 3.0 0.00 0.00 0.00 75 1011.4
20260906065732 77 68 1.0 2.0 0.00 0.00 0.00 75 1011.1
20260906065227 77 107 3.0 3.0 0.00 0.00 0.00 75 1011.2
20260906064723 78 66 1.0 2.0 0.00 0.00 0.00 74 1011.1
20260906064218 78 70 0.0 1.0 0.00 0.00 0.00 73 1011.1
20260906063713 78 63 1.0 2.0 0.00 0.00 0.00 73 1011.2
20260906063209 78 136 2.0 3.0 0.00 0.00 0.00 72 1011.1
20260906062704 79 127 2.0 4.0 0.00 0.00 0.00 71 1011.1
20260906062203 79 159 3.0 6.0 0.00 0.00 0.00 70 1011.4
20260906061659 79 121 5.0 6.0 0.00 0.00 0.00 69 1011.4
20260906061154 80 112 2.0 4.0 0.00 0.00 0.00 69 1011.3
20260906060651 80 127 2.0 3.0 0.00 0.00 0.00 69 1011.5
20260906060148 80 136 3.0 4.0 0.00 0.00 0.00 69 1011.9
20260906055643 80 168 3.0 4.0 0.00 0.00 0.00 71 1011.9
20260906055138 80 204 1.0 4.0 0.00 0.00 0.00 73 1011.9
20260906054633 80 111 4.0 7.0 0.00 0.00 0.00 73 1012.0
20260906054128 80 154 2.0 6.0 0.00 0.00 0.00 73 1012.1
20260906053626 80 92 1.0 3.0 0.00 0.00 0.00 74 1012.1
20260906053126 80 139 3.0 4.0 0.00 0.00 0.00 73 1012.1
20260906052621 80 198 2.0 4.0 0.00 0.00 0.00 73 1012.0
20260906052118 81 101 1.0 6.0 0.00 0.00 0.00 73 1011.9
20260906051613 80 58 2.0 8.0 0.00 0.00 0.00 72 1012.0
20260906051109 80 51 2.0 6.0 0.00 0.00 0.00 72 1012.0
20260906050604 80 72 4.0 6.0 0.00 0.00 0.00 71 1011.8
20260906050059 80 55 6.0 6.0 0.00 0.00 0.00 70 1012.0
20260906045557 81 76 3.0 6.0 0.00 0.00 0.00 70 1012.0
20260906045053 81 83 4.0 7.0 0.00 0.00 0.00 69 1012.0
20260906044548 81 33 2.0 5.0 0.00 0.00 0.00 72 1012.0
20260906044043 82 84 4.0 6.0 0.00 0.00 0.00 74 1011.7
20260906043539 82 29 2.0 4.0 0.00 0.00 0.00 73 1012.1
20260906043036 82 35 2.0 3.0 0.00 0.00 0.00 73 1011.6
20260906042534 82 119 2.0 3.0 0.00 0.00 0.00 73 1011.5
20260906042029 82 103 0.0 2.0 0.00 0.00 0.00 73 1011.1
20260906041525 82 62 1.0 5.0 0.00 0.00 0.00 74 1011.3
20260906041025 82 39 4.0 6.0 0.00 0.00 0.00 74 1011.4
20260906040520 82 50 2.0 6.0 0.00 0.00 0.00 74 1011.4
20260906040015 82 46 6.0 8.0 0.00 0.00 0.00 74 1011.2
20260906035511 82 49 2.0 6.0 0.00 0.00 0.00 74 1011.2
20260906035007 82 49 3.0 6.0 0.00 0.00 0.00 73 1011.4
20260906034506 82 72 2.0 5.0 0.00 0.00 0.00 72 1011.5
20260906034001 82 96 2.0 4.0 0.00 0.00 0.00 72 1011.5
20260906033456 82 93 3.0 5.0 0.00 0.00 0.00 72 1011.4
20260906032952 82 95 2.0 4.0 0.00 0.00 0.00 72 1011.5
20260906032449 82 17 2.0 4.0 0.00 0.00 0.00 73 1011.8
20260906031948 82 57 3.0 4.0 0.00 0.00 0.00 74 1011.6
20260906031444 82 65 3.0 4.0 0.00 0.00 0.00 73 1011.5
20260906030939 82 8 2.0 2.0 0.00 0.00 0.00 72 1010.9
20260906030434 83 76 1.0 3.0 0.00 0.00 0.00 70 1010.8
20260906025934 83 33 2.0 3.0 0.00 0.00 0.00 69 1011.0
20260906025428 83 69 0.0 2.0 0.00 0.00 0.00 67 1010.9
20260906024927 83 58 1.0 2.0 0.00 0.00 0.00 67 1010.7
20260906024426 83 39 1.0 2.0 0.00 0.00 0.00 68 1010.9
20260906023922 83 61 2.0 2.0 0.00 0.00 0.00 67 1010.5
20260906023418 83 7 0.0 2.0 0.00 0.00 0.00 69 1010.5
20260906022918 84 274 0.0 2.0 0.00 0.00 0.00 65 1010.2
20260906022413 84 44 2.0 2.0 0.00 0.00 0.00 66 1010.0
20260906021908 84 118 2.0 2.0 0.00 0.00 0.00 64 1010.2
20260906021409 85 99 2.0 2.0 0.00 0.00 0.00 63 1010.3
20260906020903 85 246 0.0 0.0 0.00 0.00 0.00 61 1010.5
20260906020403 85 81 0.0 2.0 0.00 0.00 0.00 61 1010.5
20260906015857 85 4 2.0 3.0 0.00 0.00 0.00 61 1010.5
20260906015356 85 17 1.0 3.0 0.00 0.00 0.00 60 1009.9
20260906014856 85 346 2.0 3.0 0.00 0.00 0.00 60 1010.1
20260906014356 85 356 2.0 2.0 0.00 0.00 0.00 59 1009.6
20260906013853 85 15 2.0 2.0 0.00 0.00 0.00 60 1009.7
20260906013348 85 69 0.0 2.0 0.00 0.00 0.00 60 1009.7
20260906012843 85 128 0.0 2.0 0.00 0.00 0.00 62 1010.0
20260906012338 85 174 1.0 2.0 0.00 0.00 0.00 61 1009.8
20260906011838 84 63 0.0 2.0 0.00 0.00 0.00 63 1010.0
20260906011333 84 126 1.0 2.0 0.00 0.00 0.00 63 1010.0
20260906010829 85 11 0.0 2.0 0.00 0.00 0.00 62 1009.9
20260906010325 85 117 0.0 1.0 0.00 0.00 0.00 60 1009.6
20260906005820 86 351 0.0 2.0 0.00 0.00 0.00 60 1009.6
20260906005319 86 302 0.0 2.0 0.00 0.00 0.00 61 1009.5
20260906004818 86 21 0.0 2.0 0.00 0.00 0.00 59 1009.6
20260906004318 86 64 5.0 6.0 0.00 0.00 0.00 59 1009.9
20260906003813 86 0 0.0 2.0 0.00 0.00 0.00 59 1009.9
20260906003308 87 83 2.0 5.0 0.00 0.00 0.00 58 1010.0
20260906002804 87 86 1.0 8.0 0.00 0.00 0.00 57 1010.2
20260906002306 88 30 2.0 9.0 0.00 0.00 0.00 57 1010.0
20260906001759 89 46 4.0 7.0 0.00 0.00 0.00 58 1010.2
20260906001254 89 42 5.0 11.0 0.00 0.00 0.00 60 1010.0
20260906000750 90 100 6.0 9.0 0.00 0.00 0.00 59 1010.2
20260906000250 91 54 6.0 8.0 0.00 0.00 0.00 58 1010.0
20260905235745 92 52 2.0 9.0 0.00 0.00 0.00 57 1010.0
20260905235244 94 27 6.0 13.0 0.00 0.00 0.00 54 1010.1
20260905234740 95 57 2.0 3.0 0.00 0.00 0.00 53 1009.7
20260905234235 96 57 0.0 2.0 0.00 0.00 0.00 50 1009.5
20260905233730 96 8 1.0 2.0 0.00 0.00 0.00 51 1009.3
20260905233230 96 323 0.0 1.0 0.00 0.00 0.00 49 1009.4
20260905232724 96 279 1.0 3.0 0.00 0.00 0.00 47 1009.3
20260905232220 96 335 0.0 3.0 0.00 0.00 0.00 47 1009.2
20260905231716 96 327 2.0 2.0 0.00 0.00 0.00 48 1009.1
20260905231211 96 264 2.0 3.0 0.00 0.00 0.00 46 1009.1
20260905230707 96 252 1.0 3.0 0.00 0.00 0.00 46 1009.1
20260905230205 97 279 2.0 5.0 0.00 0.00 0.00 46 1009.1
20260905225705 97 278 2.0 3.0 0.00 0.00 0.00 46 1009.2
20260905225200 97 263 1.0 4.0 0.00 0.00 0.00 45 1009.2
20260905224659 98 257 0.0 3.0 0.00 0.00 0.00 44 1009.1
20260905224153 98 271 1.0 3.0 0.00 0.00 0.00 44 1009.1
20260905223650 98 315 3.0 4.0 0.00 0.00 0.00 43 1009.2
20260905223148 98 277 0.0 2.0 0.00 0.00 0.00 43 1009.1
20260905222643 98 328 0.0 3.0 0.00 0.00 0.00 43 1009.1
20260905222143 99 254 2.0 3.0 0.00 0.00 0.00 42 1009.2
20260905221638 99 307 1.0 2.0 0.00 0.00 0.00 44 1008.9
20260905221135 100 226 3.0 6.0 0.00 0.00 0.00 40 1009.0
20260905220630 101 272 2.0 4.0 0.00 0.00 0.00 40 1009.2
20260905220126 101 242 1.0 4.0 0.00 0.00 0.00 39 1009.3
20260905215626 102 231 3.0 3.0 0.00 0.00 0.00 38 1009.1
20260905215121 102 298 2.0 3.0 0.00 0.00 0.00 39 1009.2
20260905214618 102 267 4.0 4.0 0.00 0.00 0.00 38 1009.0
20260905214117 102 14 0.0 5.0 0.00 0.00 0.00 40 1009.2
20260905213613 102 276 2.0 5.0 0.00 0.00 0.00 38 1009.2
20260905213108 103 304 4.0 4.0 0.00 0.00 0.00 37 1009.2
20260905212609 103 245 2.0 3.0 0.00 0.00 0.00 39 1009.2
20260905212108 102 221 2.0 5.0 0.00 0.00 0.00 40 1009.2
20260905211603 102 281 2.0 4.0 0.00 0.00 0.00 41 1009.4
20260905211059 103 263 5.0 6.0 0.00 0.00 0.00 39 1009.5
20260905210554 103 266 2.0 3.0 0.00 0.00 0.00 40 1009.4
20260905210049 102 217 0.0 4.0 0.00 0.00 0.00 40 1009.6
20260905205549 101 273 3.0 5.0 0.00 0.00 0.00 42 1009.7
20260905205048 101 262 2.0 5.0 0.00 0.00 0.00 41 1009.6
20260905204543 101 233 2.0 4.0 0.00 0.00 0.00 42 1009.6
20260905204038 101 223 2.0 5.0 0.00 0.00 0.00 41 1009.6
20260905203538 101 263 3.0 6.0 0.00 0.00 0.00 40 1009.8
20260905203033 102 214 1.0 5.0 0.00 0.00 0.00 41 1009.8
20260905202528 103 271 1.0 5.0 0.00 0.00 0.00 41 1010.0
20260905202024 102 223 2.0 4.0 0.00 0.00 0.00 39 1009.9
20260905201520 101 229 1.0 5.0 0.00 0.00 0.00 40 1010.0
20260905201019 101 265 3.0 6.0 0.00 0.00 0.00 41 1009.9
20260905200515 102 240 2.0 8.0 0.00 0.00 0.00 40 1010.3
20260905200015 103 275 3.0 5.0 0.00 0.00 0.00 40 1010.3
20260905195514 102 302 0.0 3.0 0.00 0.00 0.00 42 1010.6
20260905195010 102 226 1.0 3.0 0.00 0.00 0.00 42 1010.6
20260905194509 101 230 3.0 6.0 0.00 0.00 0.00 43 1010.6
20260905194009 101 238 2.0 6.0 0.00 0.00 0.00 42 1010.7
20260905193504 101 216 3.0 6.0 0.00 0.00 0.00 42 1010.8
20260905192959 101 226 1.0 4.0 0.00 0.00 0.00 43 1010.6
20260905192454 100 177 2.0 5.0 0.00 0.00 0.00 43 1010.9
20260905191950 101 221 6.0 6.0 0.00 0.00 0.00 41 1010.8
20260905191444 101 307 1.0 2.0 0.00 0.00 0.00 43 1010.9
20260905190943 100 189 1.0 6.0 0.00 0.00 0.00 44 1011.0
20260905190441 100 148 1.0 4.0 0.00 0.00 0.00 45 1011.2
20260905185940 99 295 3.0 4.0 0.00 0.00 0.00 46 1011.0
20260905185435 99 266 2.0 3.0 0.00 0.00 0.00 46 1011.1
20260905184933 100 262 4.0 5.0 0.00 0.00 0.00 45 1011.3
20260905184428 100 138 2.0 4.0 0.00 0.00 0.00 46 1011.5
20260905183927 98 255 0.0 4.0 0.00 0.00 0.00 47 1011.3
20260905183422 99 14 3.0 7.0 0.00 0.00 0.00 46 1011.6
20260905182917 99 127 0.0 4.0 0.00 0.00 0.00 49 1011.8
20260905182416 99 10 0.0 3.0 0.00 0.00 0.00 47 1011.9
20260905181912 99 102 0.0 2.0 0.00 0.00 0.00 48 1011.9
20260905181412 99 247 1.0 3.0 0.00 0.00 0.00 49 1012.0
20260905180911 99 124 3.0 3.0 0.00 0.00 0.00 48 1012.1
20260905180407 98 260 2.0 2.0 0.00 0.00 0.00 50 1012.1
20260905175907 98 86 0.0 5.0 0.00 0.00 0.00 49 1012.1
20260905175407 98 218 0.0 4.0 0.00 0.00 0.00 48 1012.0
20260905174907 97 265 0.0 4.0 0.00 0.00 0.00 52 1012.2
20260905174403 97 231 3.0 4.0 0.00 0.00 0.00 50 1012.3
20260905173858 98 216 4.0 5.0 0.00 0.00 0.00 51 1012.3
20260905173354 98 123 1.0 4.0 0.00 0.00 0.00 51 1012.3
20260905172849 98 357 0.0 3.0 0.00 0.00 0.00 50 1012.4
20260905172347 97 316 0.0 3.0 0.00 0.00 0.00 52 1012.5
20260905171843 97 286 3.0 4.0 0.00 0.00 0.00 53 1012.5
20260905171340 97 246 1.0 4.0 0.00 0.00 0.00 55 1012.4
20260905170836 96 256 1.0 4.0 0.00 0.00 0.00 54 1012.7
20260905170332 95 219 4.0 4.0 0.00 0.00 0.00 54 1012.5
20260905165831 95 218 3.0 5.0 0.00 0.00 0.00 54 1012.5